Вернуться в каталог

CZ-4 DEB

АктивенSSO
NORAD 37613·DEBRIS·🇨🇳 China

Запущен Sep 3, 1990 с Taiyuan Satellite Launch Center

Loading…

Ближайшие Пролёты (ближайшие 24 часа)

TLE

СвежийSource: Space-Track

Эпоха: Sep 14, 2026, 06:17 UTC

1 37613U 90081CZ  26257.26237583  .00003392  00000-0  17229-2 0  9996
2 37613  98.8500  82.3240 0146868 156.4976 204.2998 14.11126647145256

Отслеживайте CZ-4 DEB в реальном времени с AllMySat

Download on the App Store